FW1746 Weather Reports


Display with metric or nautical units.
time (UTC)temp
F
wind
direction
speed
MPH
gust
MPH
rain 1hr
in
rain 24hr
in
rain mn
in
humidity
%
barometer
mb
20260904091516 59 207 0.0 3.0 0.00 0.12 0.00 88 999.8
20260904090013 59 209 0.0 3.0 0.00 0.12 0.00 88 1000.0
20260904084512 59 217 0.0 5.0 0.00 0.12 0.00 89 1000.3
20260904083010 59 163 0.0 4.0 0.00 0.12 0.00 89 1000.4
20260904081507 59 202 0.0 4.0 0.00 0.12 0.00 89 1000.5
20260904080005 58 214 0.0 4.0 0.00 0.12 0.00 89 1000.7
20260904074503 58 170 0.0 5.0 0.00 0.12 0.00 91 1000.6
20260904073107 57 182 0.0 3.0 0.00 0.12 0.00 92 1000.8
20260904071600 57 185 0.0 3.0 0.00 0.12 0.00 94 1000.8
20260904070107 56 192 0.0 3.0 0.00 0.12 0.00 95 1000.8
20260904064553 55 199 0.0 1.0 0.00 0.12 0.00 96 1000.9
20260904063057 55 196 0.0 0.0 0.00 0.12 0.00 96 1001.1
20260904061601 54 196 0.0 1.0 0.00 0.12 0.00 96 1001.1
20260904060050 53 200 0.0 1.0 0.00 0.12 0.00 96 1001.2
20260904054551 53 198 0.0 2.0 0.00 0.12 0.00 96 1001.3
20260904053047 53 194 0.0 2.0 0.00 0.12 0.00 95 1001.7
20260904051549 53 198 0.0 2.0 0.00 0.12 0.00 95 1001.8
20260904050045 53 199 0.0 2.0 0.00 0.12 0.00 95 1001.8
20260904044544 53 161 0.0 4.0 0.00 0.12 0.00 95 1001.9
20260904043055 53 227 0.0 3.0 0.00 0.12 0.00 94 1001.9
20260904041540 53 223 1.0 4.0 0.00 0.12 0.00 94 1002.1
20260904040039 54 196 0.0 3.0 0.00 0.12 0.00 94 1002.1
20260904034547 54 190 1.0 5.0 0.00 0.12 0.00 93 1002.2
20260904033037 54 211 2.0 7.0 0.00 0.12 0.00 93 1002.2
20260904031542 55 165 1.0 5.0 0.00 0.12 0.00 93 1002.3
20260904030035 55 190 1.0 8.0 0.00 0.12 0.00 93 1002.4
20260904024534 55 190 2.0 7.0 0.00 0.12 0.00 93 1002.5
20260904023031 55 205 2.0 7.0 0.00 0.12 0.00 93 1002.7
20260904021537 55 158 2.0 8.0 0.00 0.12 0.00 92 1002.7
20260904020029 55 173 2.0 6.0 0.00 0.12 0.00 92 1002.8
20260904014527 55 160 2.0 6.0 0.00 0.12 0.00 92 1002.8
20260904013026 55 213 1.0 7.0 0.00 0.12 0.00 92 1002.8
20260904011527 55 188 3.0 10.0 0.00 0.12 0.00 93 1003.2
20260904010023 55 192 3.0 7.0 0.00 0.12 0.00 93 1003.0
20260904004522 55 175 3.0 7.0 0.00 0.12 0.00 93 1003.1
20260904003022 55 195 2.0 9.0 0.00 0.12 0.00 94 1003.1
20260904001521 56 216 5.0 11.0 0.00 0.12 0.00 94 1003.4
20260904000101 56 190 2.0 7.0 0.00 0.12 0.00 94 1003.4
20260903234518 56 213 3.0 11.0 0.00 0.12 0.00 94 1003.2
20260903233023 56 227 3.0 12.0 0.00 0.12 0.00 95 1003.5
20260903231521 56 254 3.0 10.0 0.00 0.12 0.00 95 1003.6
20260903230024 56 221 3.0 8.0 0.00 0.12 0.00 96 1003.9
20260903224535 56 193 2.0 9.0 0.00 0.12 0.00 96 1003.8
20260903223008 56 9 3.0 10.0 0.00 0.12 0.00 96 1003.7
20260903221505 56 192 4.0 10.0 0.00 0.12 0.00 97 1003.8
20260903220003 56 175 2.0 10.0 0.00 0.12 0.00 97 1003.6
20260903214501 56 188 2.0 8.0 0.00 0.12 0.12 97 1003.7
20260903213005 56 205 3.0 11.0 0.00 0.12 0.12 97 1003.8
20260903211501 56 173 4.0 10.0 0.00 0.12 0.12 97 1003.9
20260903210104 56 129 4.0 10.0 0.00 0.12 0.12 97 1003.8
20260903204603 56 182 2.0 10.0 0.00 0.12 0.12 97 1003.9
20260903203008 57 192 1.0 8.0 0.00 0.12 0.12 97 1003.9
20260903201507 57 188 2.0 5.0 0.00 0.12 0.12 97 1003.8
20260903200004 57 182 1.0 5.0 0.00 0.12 0.12 97 1004.0
20260903194508 58 190 1.0 7.0 0.00 0.12 0.12 97 1004.0
20260903193058 57 161 1.0 5.0 0.00 0.12 0.12 97 1004.1
20260903191555 57 154 2.0 6.0 0.00 0.12 0.12 97 1004.0
20260903184554 57 221 0.0 2.0 0.01 0.12 0.12 97 1003.9
20260903183057 57 202 0.0 2.0 0.01 0.12 0.12 97 1003.6
20260903181556 57 202 0.0 2.0 0.02 0.12 0.12 97 1003.6
20260903180056 57 202 0.0 2.0 0.01 0.11 0.11 97 1003.6
20260903174553 57 254 2.0 6.0 0.01 0.11 0.11 97 1003.5
20260903173053 57 53 3.0 11.0 0.02 0.11 0.11 97 1003.1
20260903171553 57 233 1.0 9.0 0.01 0.10 0.10 96 1003.2
20260903170058 57 15 4.0 11.0 0.01 0.10 0.10 96 1003.1
20260903164551 57 50 8.0 12.0 0.01 0.10 0.10 96 1003.0
20260903163102 57 42 5.0 11.0 0.00 0.09 0.09 96 1003.2
20260903161549 57 46 5.0 12.0 0.01 0.09 0.09 96 1003.4
20260903160050 57 25 9.0 11.0 0.02 0.09 0.09 96 1003.5
20260903154544 57 30 4.0 8.0 0.03 0.09 0.09 95 1003.8
20260903153042 57 22 4.0 10.0 0.03 0.09 0.09 95 1003.9
20260903151541 57 51 6.0 11.0 0.04 0.09 0.09 95 1004.1
20260903150057 57 40 4.0 9.0 0.06 0.08 0.08 95 1004.4
20260903144539 57 306 2.0 8.0 0.05 0.06 0.06 94 1004.6
20260903143044 57 40 5.0 10.0 0.05 0.06 0.06 93 1004.5
20260903141539 57 44 8.0 12.0 0.04 0.06 0.06 93 1004.3
20260903140044 57 39 7.0 12.0 0.01 0.02 0.02 92 1004.5
20260903134536 57 52 9.0 13.0 0.01 0.02 0.02 92 1004.7
20260903133035 57 53 7.0 14.0 0.01 0.02 0.02 92 1004.7
20260903131533 56 37 8.0 13.0 0.01 0.02 0.02 91 1005.0
20260903130033 56 50 5.0 11.0 0.02 0.02 0.02 90 1005.2
20260903124533 57 51 8.0 13.0 0.02 0.02 0.02 89 1005.0
20260903123033 57 47 9.0 14.0 0.01 0.01 0.01 88 1005.2
20260903121529 57 54 9.0 12.0 0.01 0.01 0.01 86 1005.4
20260903120029 57 54 7.0 12.0 0.00 0.00 0.00 83 1005.5
20260903114528 57 39 8.0 12.0 0.00 0.00 0.00 83 1005.6
20260903113026 57 48 9.0 13.0 0.00 0.00 0.00 82 1005.7
20260903111523 57 38 7.0 11.0 0.00 0.00 0.00 82 1005.9
20260903110021 57 41 8.0 14.0 0.00 0.00 0.00 82 1006.1
20260903104519 56 35 8.0 12.0 0.00 0.00 0.00 82 1006.4
20260903103018 56 15 5.0 10.0 0.00 0.00 0.00 83 1006.4
20260903101516 56 38 2.0 6.0 0.00 0.00 0.00 83 1006.7
20260903100023 56 39 4.0 9.0 0.00 0.00 0.00 82 1006.9
20260903094512 56 43 5.0 9.0 0.00 0.01 0.00 82 1007.1
20260903093010 56 35 4.0 9.0 0.00 0.01 0.00 81 1007.2